Location: Newark
(25.0000°N, 73.5000°E)
Time: 17:00:10
(UTC+00:00)

Vanguard 2 Rocket - Visible Passes

Search period start: 26 February 2021 00:00
Search period end: 08 March 2021 00:00
Orbit: 554 x 3326 km, 32.9° (Epoch: 25 February)

Date Brightness Start Highest point End Pass type
(mag) Time Alt. Az. Time Alt. Az. Time Alt. Az.
26 Feb 8.2 00:32:08 17° WSW 00:38:47 76° NNW 00:53:23 10° ENE visible
26 Feb 9.9 21:30:15 12° E 21:30:15 12° E 21:31:05 10° E visible
26 Feb 7.5 23:36:04 52° WSW 23:38:20 88° SSE 23:50:35 10° ENE visible
27 Feb 8.0 22:39:57 53° ESE 22:39:57 53° ESE 22:48:13 10° ENE visible
28 Feb 8.4 00:45:46 13° W 00:53:09 63° N 01:07:36 10° ENE visible
28 Feb 9.5 21:43:49 18° E 21:43:49 18° E 21:46:09 10° ENE visible
28 Feb 7.7 23:49:37 42° W 23:52:30 71° NNW 00:04:40 10° ENE visible
01 Mar 7.5 22:53:26 68° ENE 22:53:26 68° ENE 23:02:20 10° ENE visible
02 Mar 8.6 00:59:37 10° W 01:07:37 57° N 01:22:01 10° ENE visible
02 Mar 9.2 21:57:14 23° ENE 21:57:14 23° ENE 22:00:32 10° ENE visible
03 Mar 8.0 00:03:02 30° WNW 00:06:52 58° N 00:18:52 10° ENE visible
03 Mar 7.4 23:06:48 64° N 23:06:48 64° N 23:16:24 10° ENE visible
04 Mar 8.9 22:10:34 28° ENE 22:10:34 28° ENE 22:14:38 10° ENE visible
05 Mar 8.3 00:16:21 20° WNW 00:21:20 52° N 00:33:17 10° ENE visible
05 Mar 7.5 23:20:06 49° NNW 23:20:57 52° N 23:30:36 10° ENE visible
06 Mar 8.5 22:23:50 33° NE 22:23:50 33° NE 22:28:41 10° ENE visible
07 Mar 8.4 00:29:37 14° WNW 00:35:47 52° N 00:47:52 10° E visible
07 Mar 7.8 23:33:21 36° NW 23:35:24 46° N 23:44:59 10° ENE visible
